087  
ASPQ40 PGUM 170410  
RWRPQ  
WEATHER ROUNDUP FOR THE MARIANAS AND MICRONESIA  
NATIONAL WEATHER SERVICE TIYAN GU  
200 PM CHST FRI AUG 17 2018  
 
GUZ001>004-170500-  
MARIANA ISLANDS-  
 
CITY SKY/WX TMP DP RH WIND PRES REMARKS
 
GUAM AIRPORT PTSUNNY 88 79 74 S12G24 29.70F HX 102  
ANDERSEN AFB NOT AVBL  
ROTA AIRPORT PTSUNNY 84 77 79 S16 29.69S HX 94  
TINIAN AP PTSUNNY 84 77 79 S13 29.66F HX 94  
SAIPAN AP MOSUNNY 88 81 79 S15 29.67F HX 105  
 

 
 
PMZ161-170500-  
REPUBLIC OF PALAU-  
 
CITY SKY/WX TMP DP RH WIND PRES REMARKS
 
KOROR AP PTSUNNY 81 73 78 W7 29.71F  
KOROR WSO NOT AVBL  
 

 
 
PMZ171>174-170500-  
FEDERATED STATES OF MICRONESIA-  
 
CITY SKY/WX TMP DP RH WIND PRES REMARKS
 
YAP AIRPORT PTSUNNY 88 77 70 SW14 29.64F HX 100  
CHUUK AP CLOUDY 90 84 84 VRB5 29.74F HX 115  
POHNPEI AP CLOUDY 88 77 70 E6 29.73F HX 100  
POHNPEI WSO PTSUNNY 86 75 70 E6 29.76F HX 95  
KOSRAE AP NOT AVBL  
 

 
 
PMZ181-170500-  
REPUBLIC OF THE MARSHALL ISLANDS-  
 
CITY SKY/WX TMP DP RH WIND PRES REMARKS
 
KWAJALEIN AP DRIZZLE 81 77 89 E6 29.77F  
MAJURO AP PTSUNNY 88 77 70 E8 29.76F HX 100  
MAJURO WSO PTSUNNY 86 77 74 SE7 29.75F HX 97  
 

 
 
 
 
CLICK HERE TO GO TO PREVIOUS BULLETINS.

The Nexlab GU Page Main Text Page